This is the latest recevied weather packets stored in our database for station/object KC5DAQ-28. If no packets are shown the sender has not sent any weather packets the latest 1 day(s).
| Time | Temp. | Humidity | Pressure | Rain* | Wind** | Luminosity | Snow |
|---|---|---|---|---|---|---|---|
| 1778043664 | 25° C | 88% | 1003.5 hPa | 0 mm | 1.79 m/s, 131° | 0 W/m² | - |
| 1778043604 | 25° C | 88% | 1003.3 hPa | 0 mm | 1.34 m/s, 131° | 0 W/m² | - |
| 1778043551 | 25° C | 88% | 1003.4 hPa | 0 mm | 1.34 m/s, 142° | 0 W/m² | - |
| 1778043484 | 25° C | 88% | 1003.4 hPa | 0 mm | 1.34 m/s, 154° | 0 W/m² | - |
| 1778043422 | 25° C | 88% | 1003.3 hPa | 0 mm | 0.89 m/s, 117° | 0 W/m² | - |
| 1778043364 | 25° C | 88% | 1003.3 hPa | 0 mm | 0.89 m/s, 154° | 0 W/m² | - |
| 1778043304 | 25° C | 88% | 1003.3 hPa | 0 mm | 0.89 m/s, 154° | 0 W/m² | - |
| 1778043243 | 25° C | 88% | 1003.2 hPa | 0 mm | 0.89 m/s, 141° | 0 W/m² | - |
| 1778043183 | 25° C | 88% | 1003.2 hPa | 0 mm | 0.89 m/s, 141° | 0 W/m² | - |
| 1778043123 | 25° C | 88% | 1003.2 hPa | 0 mm | 0.89 m/s, 164° | 0 W/m² | - |
| 1778043063 | 25° C | 88% | 1003.1 hPa | 0 mm | 1.34 m/s, 140° | 0 W/m² | - |
| 1778043002 | 25° C | 88% | 1003.1 hPa | 0 mm | 1.79 m/s, 172° | 0 W/m² | - |
| 1778042942 | 25° C | 88% | 1003.2 hPa | 0 mm | 1.79 m/s, 165° | 0 W/m² | - |
| 1778042884 | 25° C | 88% | 1003.1 hPa | 0 mm | 1.34 m/s, 113° | 0 W/m² | - |
| 1778042823 | 25° C | 88% | 1003.2 hPa | 0 mm | 1.34 m/s, 135° | 0 W/m² | - |
| 1778042763 | 25° C | 88% | 1003.2 hPa | 0 mm | 1.79 m/s, 128° | 0 W/m² | - |
| 1778042703 | 25° C | 87% | 1003.2 hPa | 0 mm | 1.79 m/s, 142° | 0 W/m² | - |
| 1778042643 | 25° C | 87% | 1003.2 hPa | 0 mm | 1.34 m/s, 128° | 0 W/m² | - |
| 1778042583 | 25° C | 87% | 1003.2 hPa | 0 mm | 1.34 m/s, 118° | 0 W/m² | - |
| 1778042523 | 25° C | 87% | 1003.3 hPa | 0 mm | 0.89 m/s, 135° | 0 W/m² | - |
| 1778042462 | 25° C | 87% | 1003.3 hPa | 0 mm | 0.89 m/s, 159° | 0 W/m² | - |
| 1778042402 | 25° C | 87% | 1003.3 hPa | 0 mm | 0.89 m/s, 145° | 0 W/m² | - |
| 1778042342 | 25° C | 87% | 1003.4 hPa | 0 mm | 0.89 m/s, 142° | 0 W/m² | - |
| 1778042282 | 25° C | 87% | 1003.3 hPa | 0 mm | 1.34 m/s, 127° | 0 W/m² | - |
| 1778042223 | 25° C | 87% | 1003.5 hPa | 0 mm | 1.34 m/s, 114° | 0 W/m² | - |
* Rain latest hour (hover to see other rain measurements)
** Current wind speed in m/s (hover to see current wind gust speed)